Skip Page Navigation
NASA JPL Caltech
NASA Logo - Jet Propulsion Laboratory + View the NASA Portal
+ Center for Near-Earth Object Studies
JPL Home Earth Solar System Stars & Galaxies Technology
JPL Solar System Dynamics
BODIES ORBITS EPHEMERIDES TOOLS PHYSICAL DATA DISCOVERY FAQ SITE MAP
JPL Small-Body Database Browser
Search: [ help ]  
160735 (2000 RP27)
Classification: Main-belt Asteroid          SPK-ID: 2160735
Ephemeris | Orbit Diagram | Orbital Elements | Mission Design | Physical Parameters | Discovery Circumstances | Close-Approach Data ]

[ show orbit diagram ]
Orbital Elements at Epoch 2459000.5 (2020-May-31.0) TDB
Reference: JPL 14 (heliocentric ecliptic J2000)
 Element Value Uncertainty (1-sigma)   Units 
e .07712947181769024 4.4307e-08  
a 2.389069630492735 1.2507e-08 au
q 2.204801951757146 1.0902e-07 au
i 6.554070502733399 5.0549e-06 deg
node 332.3530196999544 3.7013e-05 deg
peri 41.95956043819741 4.7769e-05 deg
M 111.4624676327095 3.0625e-05 deg
tp 2458582.892979494984
(2019-Apr-09.39297950)
0.00011385 TDB
period 1348.781617478634
3.69
1.0591e-05
2.9e-08
d
yr
n .2669075522195889 2.0959e-09 deg/d
Q 2.573337309228324 1.3471e-08 au
  Orbit Determination Parameters
   # obs. used (total)      602  
   data-arc span      7092 days (19.42 yr)  
   first obs. used      2000-09-01  
   last obs. used      2020-02-01  
   planetary ephem.      DE431  
   SB-pert. ephem.      SB431-N16  
   condition code      0  
   norm. resid. RMS      .56446  
   source      ORB  
   producer      Otto Matic  
   solution date      2020-Feb-24 13:24:13  

Additional Information
 Earth MOID = 1.20884 au 
 Jupiter MOID = 2.75918 au 
 T_jup = 3.520 
[ show covariance matrix ]

Ephemeris | Orbit Diagram | Orbital Elements | Mission Design | Physical Parameters | Discovery Circumstances | Close-Approach Data ]

Physical Parameter Table
Parameter Symbol Value Units Sigma Reference Notes
absolute magnitude H 15.9   n/a MPO454064  

160735 (2000 RP27)          Discovered 2000-Sep-01 by LINEAR at Socorro
Reference: 20070828/Numbers.arcLast Updated: 2007-08-30

[ show close-approach data ]
Alternate Designations
 2000 RP27 = 2002 AA175 
Ephemeris | Orbit Diagram | Orbital Elements | Mission Design | Physical Parameters | Discovery Circumstances | Close-Approach Data ]
ABOUT SSD CREDITS/AWARDS PRIVACY/COPYRIGHT GLOSSARY LINKS
FirstGov 2020-Jul-12 07:42 UT
(server date/time)  
NASA Home Page
Site Manager:   Ryan S. Park
Webmaster  Alan B. Chamberlin